Location: Unspecified
(0.0000°N, 0.0000°E)
Time: 07:21:05
(UTC+00:00)

SR - Pass Details

Date: 13 December 2018
Orbit: 582 x 874 km, 66.7° (Epoch: 16 June)

Event Time Altitude Azimuth Distance (km) Brightness Sun altitude
Rises 13:03:29 0° 336° (NNW) 2,817 ? 61.4°
Reaches altitude 10° 13:05:44 10° 333° (NNW) 1,902 ? 61.0°
Maximum altitude 13:09:56 67° 250° (WSW) 630 ? 60.4°
Drops below altitude 10° 13:14:09 10° 167° (SSE) 1,909 ? 59.8°
Sets 13:16:25 0° 165° (SSE) 2,829 ? 59.4°
